This is the latest recevied weather packets stored in our database for station/object HP1COO-13. If no packets are shown the sender has not sent any weather packets the latest 10 day(s).
| Time | Temp. | Humidity | Pressure | Rain* | Wind** | Luminosity | Snow |
|---|---|---|---|---|---|---|---|
| 1777772597 | 23.33° C | 99% | 1009.9 hPa | 0 mm | - | - | - |
| 1777771964 | 23.33° C | 99% | 1009.8 hPa | 0 mm | - | - | - |
| 1777770851 | 23.33° C | 99% | 1009.7 hPa | 0 mm | - | - | - |
| 1777770611 | 23.33° C | 99% | 1009.9 hPa | 0 mm | - | - | - |
| 1777770491 | 23.33° C | 99% | 1009.8 hPa | 0 mm | - | - | - |
| 1777770330 | 23.33° C | 99% | 1009.8 hPa | 0 mm | - | - | - |
| 1777769697 | 23.33° C | 99% | 1009.8 hPa | 0 mm | - | - | - |
| 1777769064 | 23.33° C | 99% | 1009.4 hPa | 0 mm | - | - | - |
| 1777768431 | 23.33° C | 99% | 1009.6 hPa | 0.25 mm | - | - | - |
| 1777767798 | 23.33° C | 99% | 1009.5 hPa | 0.25 mm | - | - | - |
| 1777767165 | 23.33° C | 99% | 1009.5 hPa | 0.51 mm | - | - | - |
| 1777766532 | 23.33° C | 99% | 1009.6 hPa | 0.76 mm | - | - | - |
| 1777765899 | 23.33° C | 99% | 1009.7 hPa | 1.02 mm | - | - | - |
| 1777765266 | 23.33° C | 99% | 1009.7 hPa | 1.52 mm | - | - | - |
| 1777764633 | 23.33° C | 99% | 1009.7 hPa | 2.29 mm | - | - | - |
| 1777764000 | 23.33° C | 99% | 1009.7 hPa | 3.56 mm | - | - | - |
| 1777763367 | 23.89° C | 99% | 1009.8 hPa | 4.32 mm | - | - | - |
| 1777762734 | 23.89° C | 99% | 1009.6 hPa | 4.32 mm | - | - | - |
| 1777762101 | 23.89° C | 99% | 1009.7 hPa | 6.1 mm | - | - | - |
| 1777761468 | 23.89° C | 99% | 1009.6 hPa | 6.6 mm | - | - | - |
| 1777760835 | 23.89° C | 99% | 1009.4 hPa | 9.4 mm | - | - | - |
| 1777760202 | 23.89° C | 99% | 1009.4 hPa | 13.21 mm | - | - | - |
| 1777759569 | 23.89° C | 99% | 1009.6 hPa | 13.72 mm | - | - | - |
| 1777758936 | 23.89° C | 99% | 1009.4 hPa | 12.95 mm | - | - | - |
| 1777758303 | 23.89° C | 99% | 1009.6 hPa | 12.45 mm | - | - | - |
* Rain latest hour (hover to see other rain measurements)
** Current wind speed in m/s (hover to see current wind gust speed)